Regional Weather Roundup
Issued by NWS Midland/Odessa, TX

Skip options and go directly to product.
Home | Oldest Version | Previous Version | Current Version | All | Graphics & Text | Save Text | Print | Product List | Glossary On

Skip product version selection by date and time.   
675
ASUS44 KMAF 072310
RWRMAF
MIDLAND AREA WEATHER ROUNDUP
NATIONAL WEATHER SERVICE MIDLAND TX
500 PM CST SUN FEB 07 2016

...IN SOUTHWEST TEXAS AND SOUTHEAST NEW MEXICO...

CITY           SKY/WX    TMP DP  RH WIND       PRES   REMARKS
ALPINE         SUNNY     70   6   8 NE10G18   30.24R
ANDREWS        FAIR      67  18  15 NE15      30.16R
ARTESIA        SUNNY     66  19  16 N8G14     30.17R
BIG SPRING     SUNNY     64  18  17 N14G21    30.15R
CARLSBAD       SUNNY     67  19  16 NW14      30.14S
DRYDEN           N/A     77   8   7 SW6       30.07R
FORT STOCKTON  CLOUDY    70  14  11 NW13      30.15R
GUAD PASS      CLOUDY    61  11  14 SW12      30.24R
HOBBS          SUNNY     64  16  15 NE9       30.18R
MARFA          SUNNY     66   4   8 W16       30.21R
MIDLAND AIRPK  SUNNY     69  17  13 NE10G18   30.14R
MIDLAND INTL   SUNNY     69  19  15 N13       30.13R
ODESSA         SUNNY     69  19  15 N14       30.14R
PECOS          CLOUDY    70  20  15 NW7       30.14R
PRESIDIO       FAIR      69  10  10 W5        30.14S
SEMINOLE       SUNNY     65  18  16 NE13      30.17R
SNYDER           N/A     62  19  18 N16       30.15R
WINK           CLOUDY    72  19  13 NE12      30.12R
$$
...OTHER STATIONS IN TEXAS...

CITY           SKY/WX    TMP DP  RH WIND       PRES   REMARKS
ABILENE        SUNNY     60  22  23 N18       30.12R
AMARILLO       SUNNY     54  20  26 N15       30.23R
AUSTIN         SUNNY     66  31  27 S12       30.10S
BROWNSVILLE    CLOUDY    66  41  40 SE13      30.15S
CORPUS CHRISTI PTSUNNY   68  39  34 SE18      30.13F
DALLAS FTW     SUNNY     64  29  26 W7        30.10R
DEL RIO        SUNNY     70  17  13 CALM      30.09R
EL PASO        CLOUDY    62  10  13 SW5       30.20F
HOUSTON INT    MOSUNNY   64  33  31 S7        30.14S
LUBBOCK        PTSUNNY   63  19  18 NE13      30.18R
SAN ANGELO     SUNNY     70  19  14 NW8       30.08R
SAN ANTONIO    MOSUNNY   66  28  24 SW9       30.11R
WACO           SUNNY     65  34  31 S8        30.09S
WICHITA FALLS  NOT AVBL
$$
...OTHER LOCATIONS IN NEW MEXICO...

CITY           SKY/WX    TMP DP  RH WIND       PRES   REMARKS
ALAMAGORDO     CLOUDY    66  14  13 NW16G23   30.19S
ALBUQUERQUE    SUNNY     57  15  19 N15       30.29R
CANNON AFB     SUNNY     58  18  21 NE10      30.22R
CLOVIS         SUNNY     57  19  23 NE13      30.23R
HOLLOMAN AFB   CLOUDY    66  14  13 N14       30.18F
ROSWELL        SUNNY     67  15  13 E7        30.16S
RUIDOSO        SUNNY     55  12  18 NW8       30.29R
SANTA FE       SUNNY     51  13  21 NW13      30.27R
TRUTH OR CONSE SUNNY     63  14  15 E8        30.22F
TUCUMCARI      SUNNY     60  17  18 E8        30.21R
$$

USA.gov is the U.S. government's official web portal to all federal, state and local government web resources and services.